QPF
0.06 0.08 0.12 0.12 0.09 0.06 0.06 0.07 0.07 0.06 0.06 0.06 0.06 0.06 0.05 0.05 0.06 0.06 0.08 0.07 0.06 0.07 0.10 0.11 0.09 0.12 0.14 0.09 0.07 0.06 0.07 0.07 0.10 0.07 0.06 0.04 0.04 0.04 0.04 0.03 0.02 0.03 0.04
0.04 0.06 0.10 0.10 0.08 0.05 0.05 0.05 0.04 0.05 0.05 0.06 0.06 0.06 0.06 0.05 0.04 0.04 0.04 0.05 0.06 0.09 0.08 0.09 0.11 0.13 0.10 0.06 0.05 0.06 0.06 0.07 0.07 0.06 0.06 0.04 0.04 0.04 0.04 0.02 0.01 0.02 0.04
0.03 0.05 0.08 0.09 0.07 0.04 0.04 0.04 0.04 0.05 0.05 0.06 0.06 0.07 0.06 0.04 0.03 0.03 0.03 0.04 0.05 0.08 0.09 0.09 0.07 0.08 0.06 0.05 0.03 0.04 0.07 0.06 0.04 0.04 0.05 0.02 0.03 0.04 0.04 0.02 0.03 0.03 0.03
0.03 0.05 0.07 0.08 0.06 0.04 0.04 0.04 0.04 0.04 0.05 0.05 0.06 0.06 0.05 0.05 0.04 0.04 0.03 0.05 0.07 0.09 0.09 0.09 0.07 0.05 0.03 0.04 0.04 0.04 0.06 0.06 0.04 0.03 0.02 0.01 0.01 0.03 0.03 0.04 0.03 0.03 0.03
0.05 0.06 0.10 0.08 0.06 0.05 0.05 0.05 0.05 0.04 0.05 0.06 0.07 0.05 0.04 0.03 0.04 0.04 0.02 0.04 0.09 0.09 0.09 0.06 0.05 0.04 0.03 0.03 0.03 0.03 0.05 0.06 0.05 0.03 0.01 0.01 0.01 0.03 0.03 0.03 0.03 0.04 0.04
0.05 0.06 0.12 0.09 0.07 0.06 0.07 0.07 0.06 0.06 0.06 0.08 0.07 0.04 0.03 0.02 0.03 0.02 0.02 0.02 0.05 0.08 0.07 0.05 0.05 0.04 0.03 0.02 0.03 0.03 0.05 0.04 0.02 0.01 0.01 0.01 0.01 0.03 0.02 0.03 0.03 0.04 0.04
0.03 0.05 0.12 0.14 0.09 0.08 0.07 0.06 0.07 0.05 0.05 0.07 0.05 0.04 0.03 0.03 0.02 0.02 0.02 0.02 0.03 0.04 0.04 0.04 0.04 0.04 0.03 0.03 0.03 0.03 0.04 0.03 0.01 0.01 0.00 0.01 0.02 0.04 0.04 0.04 0.05 0.05 0.03
0.04 0.06 0.09 0.12 0.10 0.08 0.07 0.05 0.05 0.05 0.04 0.04 0.03 0.03 0.03 0.03 0.04 0.03 0.03 0.03 0.03 0.03 0.03 0.04 0.05 0.05 0.04 0.04 0.04 0.04 0.05 0.03 0.01 0.02 0.01 0.01 0.02 0.04 0.04 0.06 0.07 0.05 0.04
0.05 0.05 0.06 0.06 0.06 0.07 0.09 0.09 0.06 0.05 0.04 0.04 0.03 0.03 0.03 0.03 0.04 0.04 0.04 0.05 0.04 0.04 0.04 0.05 0.06 0.05 0.05 0.07 0.05 0.05 0.04 0.03 0.01 0.01 0.01 0.02 0.02 0.04 0.05 0.04 0.05 0.05 0.04
0.03 0.03 0.03 0.05 0.05 0.05 0.07 0.10 0.08 0.06 0.06 0.04 0.04 0.04 0.05 0.05 0.05 0.04 0.04 0.03 0.04 0.05 0.05 0.05 0.05 0.05 0.07 0.07 0.05 0.05 0.04 0.04 0.02 0.01 0.01 0.02 0.03 0.05 0.05 0.05 0.04 0.03 0.03
0.03 0.04 0.04 0.03 0.04 0.05 0.08 0.07 0.09 0.10 0.09 0.06 0.06 0.07 0.06 0.04 0.03 0.02 0.02 0.02 0.03 0.05 0.06 0.05 0.06 0.07 0.07 0.04 0.04 0.04 0.03 0.03 0.02 0.03 0.02 0.02 0.04 0.06 0.05 0.05 0.05 0.05 0.05
0.03 0.04 0.05 0.05 0.05 0.06 0.07 0.07 0.09 0.08 0.07 0.05 0.05 0.05 0.03 0.02 0.02 0.03 0.03 0.03 0.04 0.06 0.08 0.08 0.07 0.08 0.07 0.04 0.04 0.03 0.02 0.02 0.02 0.03 0.03 0.03 0.03 0.05 0.06 0.09 0.11 0.10 0.11
0.03 0.04 0.04 0.05 0.06 0.05 0.04 0.04 0.05 0.05 0.04 0.04 0.02 0.01 0.01 0.02 0.02 0.04 0.04 0.02 0.03 0.04 0.05 0.06 0.04 0.06 0.06 0.04 0.02 0.02 0.02 0.02 0.02 0.01 0.01 0.03 0.04 0.07 0.08 0.09 0.12 0.14 0.12
0.03 0.03 0.02 0.04 0.05 0.03 0.04 0.02 0.02 0.04 0.04 0.03 0.02 0.01 0.01 0.02 0.02 0.03 0.04 0.02 0.01 0.02 0.04 0.05 0.04 0.05 0.05 0.02 0.01 0.01 0.02 0.01 0.01 0.01 0.01 0.02 0.03 0.05 0.07 0.10 0.13 0.13 0.08
0.04 0.02 0.02 0.02 0.03 0.03 0.04 0.03 0.02 0.03 0.02 0.02 0.02 0.01 0.01 0.01 0.01 0.01 0.02 0.02 0.02 0.02 0.04 0.06 0.06 0.06 0.03 0.03 0.02 0.01 0.01 0.02 0.01 0.01 0.02 0.02 0.02 0.03 0.05 0.07 0.07 0.07 0.07
0.02 0.03 0.03 0.05 0.06 0.05 0.05 0.04 0.02 0.02 0.02 0.02 0.03 0.02 0.02 0.02 0.01 0.02 0.02 0.03 0.02 0.02 0.04 0.06 0.06 0.05 0.03 0.04 0.03 0.03 0.02 0.02 0.02 0.02 0.03 0.01 0.01 0.02 0.03 0.04 0.05 0.07 0.10
0.03 0.03 0.04 0.07 0.07 0.06 0.06 0.06 0.03 0.03 0.03 0.03 0.03 0.02 0.02 0.03 0.03 0.03 0.04 0.04 0.04 0.03 0.04 0.06 0.05 0.04 0.04 0.03 0.02 0.02 0.02 0.01 0.02 0.03 0.03 0.01 0.01 0.02 0.03 0.04 0.04 0.06 0.08
0.04 0.03 0.04 0.05 0.06 0.05 0.05 0.05 0.05 0.05 0.05 0.04 0.03 0.02 0.02 0.02 0.02 0.02 0.04 0.05 0.04 0.03 0.03 0.03 0.04 0.05 0.04 0.03 0.02 0.01 0.02 0.02 0.03 0.03 0.03 0.02 0.02 0.02 0.03 0.05 0.07 0.08 0.07
0.04 0.03 0.02 0.03 0.05 0.04 0.03 0.03 0.04 0.05 0.04 0.03 0.03 0.02 0.02 0.03 0.02 0.02 0.03 0.03 0.02 0.03 0.03 0.03 0.03 0.04 0.05 0.03 0.03 0.04 0.04 0.03 0.04 0.04 0.04 0.04 0.04 0.03 0.03 0.04 0.06 0.08 0.09
0.03 0.02 0.02 0.02 0.05 0.03 0.02 0.02 0.03 0.04 0.04 0.03 0.03 0.03 0.03 0.04 0.04 0.04 0.04 0.03 0.02 0.03 0.03 0.03 0.03 0.04 0.05 0.04 0.04 0.04 0.03 0.03 0.03 0.03 0.02 0.02 0.03 0.03 0.03 0.04 0.05 0.05 0.05
0.02 0.02 0.02 0.01 0.02 0.03 0.02 0.02 0.02 0.02 0.02 0.02 0.03 0.03 0.02 0.03 0.03 0.03 0.02 0.02 0.02 0.02 0.01 0.02 0.03 0.04 0.03 0.03 0.03 0.03 0.02 0.02 0.02 0.02 0.02 0.01 0.01 0.02 0.03 0.05 0.05 0.03 0.02
0.02 0.02 0.02 0.01 0.02 0.03 0.02 0.02 0.02 0.03 0.02 0.02 0.02 0.02 0.02 0.02 0.02 0.03 0.03 0.01 0.02 0.02 0.02 0.02 0.02 0.03 0.03 0.02 0.02 0.02 0.01 0.01 0.01 0.01 0.02 0.02 0.02 0.02 0.02 0.04 0.04 0.02 0.02
0.03 0.03 0.03 0.02 0.02 0.02 0.03 0.03 0.03 0.04 0.03 0.02 0.01 0.02 0.02 0.02 0.02 0.02 0.03 0.02 0.02 0.02 0.02 0.04 0.04 0.05 0.03 0.02 0.02 0.02 0.01 0.01 0.01 0.01 0.01 0.02 0.02 0.01 0.01 0.02 0.02 0.03 0.03
0.03 0.02 0.02 0.02 0.02 0.03 0.04 0.03 0.02 0.03 0.02 0.02 0.02 0.02 0.01 0.01 0.02 0.02 0.03 0.02 0.01 0.01 0.01 0.04 0.04 0.04 0.03 0.02 0.02 0.02 0.01 0.01 0.01 0.01 0.01 0.01 0.01 0.01 0.01 0.02 0.02 0.02 0.04
0.03 0.03 0.03 0.02 0.03 0.03 0.03 0.02 0.02 0.03 0.03 0.03 0.03 0.02 0.02 0.02 0.02 0.02 0.02 0.02 0.01 0.01 0.02 0.03 0.02 0.02 0.02 0.02 0.02 0.03 0.02 0.02 0.01 0.01 0.01 0.01 0.01 0.01 0.01 0.01 0.02 0.03 0.04
0.04 0.04 0.03 0.02 0.02 0.03 0.04 0.03 0.01 0.02 0.02 0.02 0.02 0.01 0.01 0.02 0.02 0.03 0.03 0.02 0.01 0.02 0.01 0.02 0.01 0.01 0.01 0.01 0.01 0.02 0.03 0.04 0.02 0.01 0.01 0.01 0.00 0.00 0.01 0.01 0.01 0.02 0.03
MSLP
1010.08 1009.81 1009.68 1009.73 1009.93 1010.26 1010.65 1011.05 1011.42 1011.73 1011.97 1012.19 1012.39 1012.62 1012.88 1013.17 1013.48 1013.78 1014.03 1014.23 1014.36 1014.43 1014.47 1014.50 1014.54 1014.60 1014.69 1014.79 1014.90 1015.00 1015.09 1015.16 1015.22 1015.29 1015.38 1015.48 1015.61 1015.74 1015.87 1015.99 1016.09 1016.18 1016.25
1009.92 1009.79 1009.79 1009.95 1010.23 1010.60 1011.00 1011.38 1011.71 1011.98 1012.20 1012.41 1012.62 1012.87 1013.17 1013.49 1013.82 1014.13 1014.38 1014.54 1014.63 1014.66 1014.64 1014.61 1014.60 1014.62 1014.67 1014.75 1014.85 1014.95 1015.06 1015.17 1015.28 1015.40 1015.53 1015.68 1015.83 1015.99 1016.13 1016.26 1016.37 1016.46 1016.55
1009.74 1009.74 1009.88 1010.14 1010.50 1010.92 1011.33 1011.71 1012.02 1012.26 1012.46 1012.65 1012.87 1013.14 1013.45 1013.79 1014.13 1014.43 1014.65 1014.79 1014.84 1014.82 1014.75 1014.68 1014.63 1014.60 1014.63 1014.68 1014.77 1014.89 1015.02 1015.16 1015.32 1015.49 1015.68 1015.87 1016.06 1016.23 1016.39 1016.53 1016.64 1016.76 1016.87
1009.59 1009.72 1009.97 1010.33 1010.77 1011.23 1011.67 1012.04 1012.33 1012.56 1012.74 1012.92 1013.14 1013.40 1013.71 1014.04 1014.37 1014.65 1014.85 1014.96 1014.98 1014.93 1014.84 1014.74 1014.66 1014.62 1014.62 1014.66 1014.74 1014.86 1015.01 1015.19 1015.39 1015.61 1015.84 1016.07 1016.28 1016.48 1016.64 1016.78 1016.91 1017.03 1017.17
1009.54 1009.76 1010.10 1010.54 1011.03 1011.53 1011.99 1012.36 1012.65 1012.86 1013.03 1013.20 1013.40 1013.65 1013.94 1014.26 1014.56 1014.81 1014.99 1015.08 1015.08 1015.03 1014.93 1014.83 1014.75 1014.69 1014.68 1014.72 1014.80 1014.92 1015.08 1015.28 1015.51 1015.76 1016.02 1016.27 1016.50 1016.70 1016.86 1017.00 1017.13 1017.26 1017.41
1009.59 1009.88 1010.27 1010.77 1011.30 1011.82 1012.29 1012.66 1012.94 1013.14 1013.30 1013.47 1013.66 1013.89 1014.17 1014.46 1014.73 1014.96 1015.11 1015.19 1015.19 1015.14 1015.05 1014.97 1014.90 1014.85 1014.85 1014.88 1014.95 1015.06 1015.23 1015.43 1015.67 1015.94 1016.22 1016.47 1016.70 1016.89 1017.04 1017.17 1017.28 1017.42 1017.58
1009.75 1010.07 1010.50 1011.02 1011.56 1012.09 1012.56 1012.92 1013.20 1013.40 1013.56 1013.72 1013.92 1014.15 1014.41 1014.68 1014.93 1015.13 1015.26 1015.32 1015.33 1015.29 1015.22 1015.16 1015.11 1015.08 1015.08 1015.10 1015.17 1015.27 1015.43 1015.63 1015.87 1016.14 1016.41 1016.66 1016.88 1017.05 1017.17 1017.28 1017.37 1017.49 1017.65
1010.01 1010.34 1010.78 1011.29 1011.83 1012.35 1012.79 1013.15 1013.42 1013.62 1013.79 1013.97 1014.18 1014.42 1014.68 1014.94 1015.17 1015.35 1015.46 1015.51 1015.50 1015.47 1015.43 1015.38 1015.35 1015.34 1015.34 1015.36 1015.42 1015.51 1015.65 1015.83 1016.06 1016.32 1016.59 1016.83 1017.02 1017.17 1017.27 1017.34 1017.40 1017.50 1017.64
1010.33 1010.67 1011.10 1011.60 1012.12 1012.60 1013.02 1013.35 1013.61 1013.82 1014.02 1014.22 1014.46 1014.73 1015.00 1015.26 1015.47 1015.62 1015.71 1015.73 1015.71 1015.67 1015.63 1015.60 1015.58 1015.57 1015.58 1015.60 1015.64 1015.72 1015.84 1016.01 1016.22 1016.47 1016.73 1016.96 1017.14 1017.26 1017.33 1017.37 1017.40 1017.46 1017.57
1010.69 1011.04 1011.47 1011.95 1012.44 1012.88 1013.26 1013.57 1013.81 1014.03 1014.24 1014.48 1014.75 1015.05 1015.34 1015.60 1015.80 1015.93 1015.98 1015.97 1015.92 1015.86 1015.81 1015.77 1015.75 1015.75 1015.76 1015.78 1015.81 1015.87 1015.97 1016.13 1016.33 1016.57 1016.82 1017.04 1017.22 1017.33 1017.38 1017.40 1017.40 1017.42 1017.50
1011.07 1011.44 1011.88 1012.35 1012.81 1013.21 1013.55 1013.82 1014.05 1014.26 1014.49 1014.76 1015.07 1015.39 1015.70 1015.96 1016.15 1016.24 1016.25 1016.20 1016.11 1016.01 1015.93 1015.88 1015.86 1015.86 1015.86 1015.88 1015.91 1015.96 1016.05 1016.19 1016.38 1016.60 1016.85 1017.07 1017.25 1017.37 1017.42 1017.42 1017.41 1017.41 1017.45
1011.44 1011.86 1012.32 1012.79 1013.23 1013.60 1013.90 1014.14 1014.34 1014.55 1014.78 1015.06 1015.39 1015.73 1016.04 1016.30 1016.46 1016.53 1016.49 1016.39 1016.25 1016.11 1016.00 1015.93 1015.90 1015.90 1015.91 1015.92 1015.94 1015.99 1016.06 1016.18 1016.36 1016.57 1016.81 1017.04 1017.23 1017.36 1017.43 1017.45 1017.43 1017.42 1017.44
1011.80 1012.27 1012.77 1013.26 1013.70 1014.05 1014.33 1014.53 1014.71 1014.90 1015.12 1015.40 1015.72 1016.06 1016.37 1016.60 1016.74 1016.76 1016.68 1016.53 1016.35 1016.17 1016.04 1015.95 1015.91 1015.91 1015.92 1015.94 1015.96 1015.98 1016.04 1016.13 1016.28 1016.47 1016.69 1016.92 1017.13 1017.28 1017.38 1017.43 1017.43 1017.43 1017.44
1012.11 1012.64 1013.20 1013.72 1014.17 1014.53 1014.80 1014.99 1015.15 1015.31 1015.51 1015.77 1016.07 1016.38 1016.66 1016.86 1016.96 1016.95 1016.83 1016.64 1016.42 1016.22 1016.07 1015.97 1015.93 1015.92 1015.94 1015.96 1015.97 1015.98 1016.00 1016.05 1016.15 1016.30 1016.50 1016.71 1016.92 1017.11 1017.24 1017.33 1017.37 1017.39 1017.41
1012.38 1012.97 1013.57 1014.14 1014.62 1015.00 1015.28 1015.48 1015.63 1015.78 1015.96 1016.18 1016.44 1016.70 1016.93 1017.09 1017.15 1017.10 1016.95 1016.73 1016.50 1016.28 1016.12 1016.02 1015.98 1015.98 1016.00 1016.01 1016.00 1015.98 1015.96 1015.96 1015.99 1016.08 1016.22 1016.41 1016.61 1016.81 1016.98 1017.12 1017.21 1017.26 1017.30
1012.60 1013.22 1013.86 1014.47 1015.00 1015.42 1015.74 1015.96 1016.13 1016.28 1016.43 1016.61 1016.82 1017.02 1017.19 1017.30 1017.31 1017.22 1017.05 1016.83 1016.59 1016.37 1016.21 1016.12 1016.08 1016.09 1016.10 1016.11 1016.08 1016.02 1015.95 1015.87 1015.83 1015.84 1015.91 1016.03 1016.20 1016.40 1016.59 1016.76 1016.89 1016.99 1017.07
1012.80 1013.42 1014.07 1014.71 1015.28 1015.76 1016.14 1016.42 1016.62 1016.78 1016.92 1017.06 1017.21 1017.34 1017.44 1017.49 1017.45 1017.34 1017.16 1016.94 1016.71 1016.51 1016.36 1016.27 1016.24 1016.24 1016.26 1016.24 1016.19 1016.10 1015.97 1015.82 1015.70 1015.61 1015.59 1015.64 1015.75 1015.91 1016.09 1016.28 1016.44 1016.57 1016.67
1013.01 1013.59 1014.22 1014.87 1015.48 1016.02 1016.46 1016.81 1017.07 1017.25 1017.39 1017.50 1017.58 1017.65 1017.68 1017.66 1017.58 1017.45 1017.27 1017.05 1016.84 1016.66 1016.53 1016.45 1016.43 1016.43 1016.44 1016.41 1016.34 1016.22 1016.04 1015.84 1015.63 1015.45 1015.34 1015.29 1015.32 1015.42 1015.56 1015.72 1015.88 1016.03 1016.14
1013.27 1013.77 1014.35 1014.98 1015.61 1016.20 1016.71 1017.13 1017.45 1017.68 1017.82 1017.90 1017.93 1017.92 1017.88 1017.80 1017.69 1017.54 1017.36 1017.17 1016.98 1016.82 1016.71 1016.64 1016.62 1016.62 1016.63 1016.60 1016.52 1016.38 1016.18 1015.94 1015.67 1015.42 1015.21 1015.06 1014.99 1014.99 1015.06 1015.17 1015.29 1015.41 1015.50
1013.60 1014.00 1014.50 1015.09 1015.71 1016.33 1016.90 1017.39 1017.77 1018.03 1018.18 1018.23 1018.22 1018.15 1018.04 1017.91 1017.76 1017.59 1017.42 1017.26 1017.10 1016.97 1016.88 1016.82 1016.80 1016.80 1016.81 1016.79 1016.72 1016.60 1016.40 1016.15 1015.85 1015.54 1015.25 1015.00 1014.82 1014.71 1014.66 1014.68 1014.72 1014.78 1014.83
1014.01 1014.30 1014.70 1015.21 1015.80 1016.43 1017.03 1017.57 1018.00 1018.30 1018.45 1018.49 1018.43 1018.30 1018.13 1017.95 1017.78 1017.61 1017.45 1017.31 1017.19 1017.09 1017.01 1016.97 1016.95 1016.96 1016.97 1016.97 1016.93 1016.84 1016.68 1016.44 1016.15 1015.81 1015.46 1015.13 1014.83 1014.59 1014.42 1014.30 1014.24 1014.20 1014.17
1014.44 1014.63 1014.93 1015.36 1015.90 1016.50 1017.12 1017.68 1018.14 1018.46 1018.63 1018.64 1018.55 1018.37 1018.16 1017.94 1017.75 1017.58 1017.44 1017.33 1017.24 1017.17 1017.11 1017.08 1017.07 1017.08 1017.10 1017.13 1017.13 1017.09 1016.98 1016.79 1016.53 1016.19 1015.80 1015.40 1015.00 1014.63 1014.32 1014.06 1013.87 1013.71 1013.59
1014.84 1014.94 1015.15 1015.50 1015.97 1016.53 1017.14 1017.71 1018.19 1018.52 1018.69 1018.69 1018.57 1018.36 1018.11 1017.88 1017.67 1017.51 1017.40 1017.33 1017.27 1017.22 1017.18 1017.15 1017.14 1017.15 1017.18 1017.23 1017.27 1017.28 1017.24 1017.11 1016.90 1016.58 1016.18 1015.72 1015.23 1014.75 1014.31 1013.91 1013.58 1013.31 1013.09
1015.10 1015.16 1015.30 1015.56 1015.97 1016.49 1017.07 1017.63 1018.12 1018.46 1018.63 1018.64 1018.50 1018.28 1018.02 1017.77 1017.57 1017.43 1017.35 1017.30 1017.27 1017.25 1017.22 1017.18 1017.16 1017.15 1017.18 1017.23 1017.30 1017.36 1017.37 1017.30 1017.14 1016.85 1016.46 1015.97 1015.43 1014.86 1014.30 1013.79 1013.34 1012.96 1012.64
1015.16 1015.20 1015.30 1015.51 1015.86 1016.33 1016.88 1017.44 1017.93 1018.29 1018.47 1018.49 1018.36 1018.14 1017.88 1017.64 1017.46 1017.34 1017.28 1017.26 1017.25 1017.24 1017.20 1017.15 1017.10 1017.06 1017.06 1017.10 1017.17 1017.24 1017.29 1017.27 1017.15 1016.91 1016.53 1016.04 1015.46 1014.83 1014.20 1013.61 1013.07 1012.61 1012.22
1014.98 1015.04 1015.11 1015.28 1015.59 1016.03 1016.56 1017.11 1017.61 1017.99 1018.21 1018.25 1018.15 1017.95 1017.71 1017.50 1017.33 1017.23 1017.19 1017.19 1017.19 1017.17 1017.12 1017.03 1016.93 1016.84 1016.79 1016.79 1016.83 1016.90 1016.95 1016.96 1016.87 1016.66 1016.31 1015.83 1015.25 1014.61 1013.94 1013.30 1012.71 1012.20 1011.77
Thickness
5788 5791 5791 5791 5791 5791 5790 5789 5789 5788 5787 5786 5785 5783 5781 5779 5778 5777 5775 5774 5772 5771 5770 5769 5768 5766 5765 5763 5762 5760 5759 5758 5756 5755 5754 5753 5752 5752 5751 5750 5749 5748 5747
5791 5791 5791 5791 5790 5790 5789 5789 5788 5787 5786 5785 5784 5782 5780 5778 5777 5775 5774 5773 5772 5770 5769 5768 5767 5765 5764 5763 5761 5760 5758 5757 5756 5755 5753 5752 5752 5751 5750 5749 5748 5747 5746
5792 5791 5791 5790 5789 5789 5788 5787 5787 5786 5785 5784 5782 5781 5779 5777 5776 5775 5774 5772 5771 5770 5769 5767 5766 5765 5764 5762 5760 5759 5758 5756 5755 5754 5753 5752 5751 5750 5749 5748 5747 5746 5745
5792 5791 5790 5789 5788 5787 5787 5786 5785 5784 5783 5782 5781 5780 5778 5777 5776 5775 5773 5772 5770 5769 5768 5767 5765 5764 5763 5761 5760 5758 5757 5756 5754 5752 5751 5751 5750 5749 5748 5747 5746 5745 5743
5792 5790 5789 5788 5787 5786 5785 5784 5784 5783 5782 5781 5780 5778 5777 5776 5775 5774 5773 5771 5769 5768 5767 5766 5764 5763 5761 5760 5759 5758 5756 5755 5754 5752 5751 5750 5749 5748 5747 5746 5744 5743 5742
5791 5790 5788 5788 5787 5785 5784 5783 5782 5781 5781 5779 5778 5777 5776 5775 5774 5772 5771 5770 5768 5767 5766 5765 5763 5762 5761 5759 5758 5757 5756 5755 5753 5752 5750 5749 5748 5747 5746 5745 5744 5743 5741
5790 5789 5787 5786 5785 5784 5782 5781 5781 5780 5779 5778 5777 5776 5775 5774 5772 5771 5770 5769 5768 5766 5765 5764 5762 5761 5760 5759 5758 5757 5756 5755 5753 5752 5750 5749 5748 5747 5746 5745 5744 5742 5741
5789 5788 5786 5785 5784 5783 5781 5781 5780 5779 5778 5777 5775 5774 5773 5772 5771 5770 5769 5768 5766 5765 5765 5763 5762 5760 5759 5758 5757 5756 5755 5754 5753 5752 5750 5749 5748 5747 5746 5745 5743 5742 5741
5788 5786 5785 5784 5783 5781 5780 5780 5779 5778 5777 5776 5774 5773 5772 5771 5770 5769 5768 5767 5766 5765 5764 5763 5762 5761 5759 5758 5757 5756 5755 5754 5752 5751 5750 5749 5748 5747 5746 5745 5744 5743 5741
5786 5785 5784 5783 5781 5780 5779 5778 5778 5777 5776 5775 5774 5772 5771 5770 5769 5768 5767 5766 5766 5765 5764 5763 5762 5760 5759 5758 5757 5756 5755 5753 5752 5751 5750 5749 5748 5747 5746 5745 5744 5743 5741
5784 5783 5783 5782 5780 5779 5778 5777 5777 5776 5774 5773 5773 5771 5770 5769 5768 5767 5767 5766 5766 5766 5764 5763 5762 5761 5759 5758 5757 5756 5755 5754 5752 5751 5750 5750 5749 5748 5747 5745 5744 5742 5741
5781 5782 5782 5782 5780 5779 5778 5777 5775 5774 5773 5772 5771 5770 5769 5768 5767 5766 5766 5766 5766 5765 5764 5763 5761 5760 5759 5758 5757 5756 5754 5753 5752 5751 5751 5751 5749 5748 5747 5746 5744 5742 5741
5783 5782 5782 5781 5780 5778 5777 5776 5774 5773 5772 5771 5770 5769 5768 5767 5766 5766 5766 5765 5765 5764 5763 5762 5761 5760 5758 5757 5756 5755 5754 5753 5752 5752 5752 5751 5750 5748 5747 5746 5744 5743 5741
5783 5782 5782 5782 5780 5778 5777 5776 5774 5773 5772 5771 5770 5769 5768 5767 5766 5765 5765 5765 5764 5763 5762 5761 5760 5759 5758 5757 5756 5755 5755 5754 5753 5753 5752 5752 5750 5749 5748 5746 5745 5744 5742
5783 5783 5783 5782 5780 5778 5777 5776 5775 5773 5772 5771 5770 5769 5768 5767 5766 5765 5764 5764 5763 5762 5761 5760 5759 5759 5758 5757 5756 5756 5755 5755 5754 5753 5752 5752 5751 5750 5748 5747 5746 5744 5743
5784 5784 5784 5782 5781 5779 5778 5776 5775 5774 5773 5771 5770 5769 5768 5767 5766 5764 5763 5763 5762 5762 5760 5759 5758 5758 5757 5757 5756 5756 5755 5755 5754 5754 5753 5752 5751 5750 5748 5747 5746 5745 5743
5786 5786 5784 5783 5782 5780 5779 5778 5776 5774 5773 5771 5770 5769 5768 5767 5766 5764 5763 5762 5762 5761 5760 5759 5758 5757 5757 5756 5755 5755 5755 5755 5754 5754 5753 5752 5751 5749 5748 5747 5746 5745 5743
5788 5787 5786 5786 5783 5781 5780 5778 5777 5775 5773 5771 5770 5770 5768 5767 5766 5764 5763 5762 5761 5760 5759 5758 5757 5756 5755 5754 5754 5754 5754 5754 5754 5752 5751 5751 5750 5748 5748 5747 5745 5744 5743
5790 5788 5786 5785 5784 5782 5780 5778 5776 5775 5773 5772 5771 5769 5768 5767 5766 5764 5763 5762 5761 5760 5759 5758 5756 5755 5753 5752 5753 5753 5753 5753 5752 5751 5750 5749 5748 5747 5746 5745 5744 5744 5743
5791 5789 5787 5785 5783 5782 5779 5777 5775 5773 5772 5771 5770 5769 5768 5767 5766 5764 5763 5762 5761 5759 5758 5756 5755 5754 5752 5751 5752 5752 5751 5751 5751 5750 5749 5748 5746 5745 5744 5743 5743 5742 5741
5791 5788 5786 5784 5782 5780 5777 5775 5772 5770 5771 5770 5770 5769 5769 5767 5766 5764 5763 5761 5760 5758 5757 5756 5754 5752 5751 5750 5748 5746 5748 5749 5749 5748 5747 5746 5745 5743 5742 5741 5741 5740 5740
5790 5788 5786 5785 5783 5781 5779 5777 5775 5772 5771 5770 5770 5769 5769 5767 5766 5764 5762 5761 5760 5758 5756 5755 5753 5750 5749 5748 5744 5740 5736 5739 5743 5746 5745 5744 5743 5741 5740 5740 5739 5739 5738
5790 5789 5788 5785 5784 5782 5780 5777 5774 5772 5770 5768 5768 5767 5768 5767 5766 5764 5762 5761 5759 5757 5755 5754 5752 5749 5746 5745 5744 5738 5732 5729 5733 5739 5741 5741 5740 5739 5738 5738 5738 5737 5737
5793 5791 5789 5787 5784 5783 5780 5777 5773 5768 5765 5766 5767 5766 5767 5767 5765 5764 5762 5761 5759 5757 5755 5754 5752 5749 5745 5742 5741 5739 5736 5734 5728 5729 5735 5737 5737 5737 5736 5737 5736 5735 5735
5794 5791 5789 5786 5784 5782 5780 5777 5773 5770 5768 5767 5766 5765 5765 5765 5764 5763 5762 5760 5758 5756 5754 5752 5751 5748 5745 5742 5739 5736 5734 5731 5729 5724 5725 5729 5732 5734 5734 5734 5734 5734 5733
5793 5791 5788 5784 5782 5780 5778 5776 5773 5770 5767 5765 5763 5762 5762 5762 5762 5761 5760 5758 5757 5755 5753 5751 5749 5746 5744 5741 5738 5735 5732 5729 5727 5724 5722 5724 5725 5730 5732 5733 5732 5732 5731